Weather Roundup
Issued by NWS

Home | Current Version | Previous Version | Graphics & Text | Print | Product List | Glossary Off
Versions: 1 2 3 4 5 6 7 8 9 10 11 12 13 14 15 16 17 18 19 20 21 22 23 24 25 26 27 28 29 30 31 32 33 34 35 36 37 38 39 40 41 42 43 44 45 46 47 48 49 50

000
NZUS93 KARX 311059
HRRWXR

CURRENT HOURLY OBSERVATIONS ACROSS
MUCH OF THE UPPER MISSISSIPPI VALLEY
NATIONAL WEATHER SERVICE LA CROSSE WI
500 AM CST SAT JAN 31 2015


...SOUTHEAST MINNESOTA...


CITY           SKY/WX    TMP DP  RH WIND       PRES   REMARKS
ROCHESTER      FAIR      22  17  81 SW12      30.11S WCI  10
ROCHESTER/MAYO FAIR      24  19  80 SW6       30.12R WCI  17
WINONA         CLOUDY    25  19  80 CALM      30.16S
AUSTIN         CLEAR     19  18  93 S3        30.12S
ALBERT LEA     PTCLDY    27  23  86 W3        30.12S
DODGE CENTER   PTCLDY    19  18  93 W8        30.11R WCI   9
PRESTON        PTCLDY    21  17  84 SW7       30.12S WCI  13
OWATONNA       CLEAR     23  19  86 SW3       30.12R
FARIBAULT      CLEAR     21  19  93 CALM      30.13R
$$

...ELSEWHERE IN MINNESOTA...


CITY           SKY/WX    TMP DP  RH WIND       PRES   REMARKS
MINNEAPOLIS    CLOUDY    23  18  81 CALM      30.13S
INTNL FALLS    LGT SNOW  12   7  80 NW12      30.17R WCI  -2
DULUTH         CLOUDY    21  13  71 NW8       30.09R WCI  11
RED WING       CLOUDY    25  19  80 CALM      30.13S
REDWOOD FALLS  CLEAR     24  21  88 NW7       30.15R WCI  16
MANKATO        CLEAR     25  19  80 SW5       30.12S WCI  19
WORTHINGTON    MOCLDY    25  21  86 CALM      30.12S
FAIRMONT       PTCLDY    25  19  80 W3        30.11S
$$

...SOUTHWEST WISCONSIN...


CITY           SKY/WX    TMP DP  RH WIND       PRES   REMARKS
LA CROSSE      CLOUDY    24  15  68 S5        30.16F WCI  18
PRAIRIE DU CHI CLEAR     22  14  71 CALM      30.18S
BOSCOBEL       CLEAR     16  11  80 CALM      30.19S
LONE ROCK      NOT AVBL
PLATTEVILLE    CLEAR     20  16  84 S8        30.17S WCI  10
FORT MC COY    CLOUDY    25  15  64 CALM      30.15F
CAMP DOUGLAS   CLOUDY    25  18  74 SW8       30.13F WCI  16
VIROQUA        FAIR      19  14  79 S5        30.12F WCI  12
WIS DELLS      NOT AVBL
$$

...ELSEWHERE IN WISCONSIN...


CITY           SKY/WX    TMP DP  RH WIND       PRES   REMARKS
MILWAUKEE      PTCLDY    21  14  74 SW8       30.20F WCI  11
MADISON        CLOUDY    24  17  74 S5        30.17F WCI  18
GREEN BAY      CLOUDY    21  14  74 SW8       30.15F WCI  11
EAU CLAIRE     CLOUDY    22  13  68 CALM      30.12S
BLACK RVR FLS  CLOUDY    20  13  76 CALM      30.13F
MEDFORD        CLOUDY    19  11  73 SW5       30.08F WCI  12
WAUSAU         CLOUDY    19  10  68 SW6       30.09F WCI  11
WIS RAPIDS     CLOUDY    20  11  68 S3        30.14F
MARSHFIELD     CLOUDY    19  11  70 SW5       30.10F WCI  12
RICE LAKE      CLOUDY    19  12  74 CALM      30.13S
$$

...NORTHEAST IOWA...


CITY           SKY/WX    TMP DP  RH WIND       PRES   REMARKS
DECORAH        PTCLDY    25  18  74 SW7       30.14S WCI  17
MASON CITY     CLEAR     26  21  81 W9        30.14S WCI  17
CHARLES CITY   CLEAR     19  18  93 S6        30.15S WCI  11
OELWEIN        CLEAR     19  16  86 S6        30.17S WCI  11
$$

...ELSEWHERE IN IOWA...


CITY           SKY/WX    TMP DP  RH WIND       PRES   REMARKS
DES MOINES     CLOUDY    32  24  72 SW9       30.20S WCI  24
IOWA CITY      PTCLDY    24  20  84 S3        30.23F
FORT DODGE     MOCLDY    27  23  86 SW3       30.15S
$$

...NORTHERN ILLINOIS...


CITY           SKY/WX    TMP DP  RH WIND       PRES   REMARKS
CHICAGO-OHARE  MOCLDY    25  18  74 SW8       30.24F WCI  16
CHICAGO-MIDWAY CLOUDY    28  21  75 SW8       30.26F WCI  20
MOLINE         FAIR      26  18  71 SW7       30.23F WCI  18
ROCKFORD       PTCLDY    21  15  78 S7        30.23F WCI  12
PEORIA         PTCLDY    25  19  78 SW6       30.29F WCI  18
$$

NOTE: "FAIR" INDICATES FEW OR NO CLOUDS BELOW 12,000 FEET WITH NO
SIGNIFICANT WEATHER AND/OR OBSTRUCTIONS TO VISIBILITY. WIND
SPEEDS ARE IN MILES-PER-HOUR.



USA.gov is the U.S. government's official web portal to all federal, state and local government web resources and services.